Location: ?????
(32.7281°N, 34.9563°E)
Time: 16:31:08
(UTC+00:00)

Cosmos 2227 Rocket - Pass Details

Date: 29 October 2020
Orbit: 839 x 845 km, 71.0° (Epoch: 30 November)

Event Time Altitude Azimuth Distance (km) Brightness Sun altitude
Rises 16:57:07 0° 328° (NNW) 3,401 5.8 -26.9°
Reaches altitude 10° 16:59:46 10° 319° (NW) 2,464 5.1 -27.4°
Maximum altitude 17:04:46 33° 257° (WSW) 1,374 3.8 -28.5°
Drops below altitude 10° 17:09:46 10° 194° (SSW) 2,455 4.7 -29.5°
Sets 17:12:24 0° 185° (S) 3,387 5.4 -30.1°
